Flag for United Kingdom Weather past 2 weeks in Norwich, England, United Kingdom

Now
48 °F

Broken clouds.


Feels Like: 41 °F
Forecast: N/A
Wind: 20 mph from Southwest

Location: Norwich Weather Centre

Current Time: Feb 28, 2015 at 5:58:06 PM

Latest Report: Feb 28, 2015 at 5:20 PM


Visibility: N/A

Pressure: 29.56 "Hg

Humidity: 87%

Dew point: 45 °F

Location of NorwichLocation

Historic Weather in Norwich — Graph

°F

Norwich temperature yesterday

Maximum temperature yesterday: 46 °F (at 1:50 PM)
Minimum temperature yesterday: 32 °F (at 5:50 AM)
Average temperature yesterday: 39 °F

Past Weeks' High & Low Weather Summary

 TemperatureHumidityPressure
High52 °F (Feb 26, 9:50 AM)100% (Feb 14, 9:50 AM)30.72 "Hg (Feb 14, 9:50 AM)
Low30 °F (Feb 22, 3:20 AM)57% (Feb 23, 2:20 PM)29.12 "Hg (Feb 22, 11:50 PM)
Average41 °F86%29.85 "Hg
* Reported Feb 13 4:20 PM — Feb 28 4:50 PM, Norwich, Weather by CustomWeather, © 2015

Note: Actual official high and low records may vary slightly from our data, if they occured in-between our weather recording intervals... More about our weather records

Advertising

Norwich weather history for previous 24 hours

 ConditionsComfort  
Time TempWeatherWind HumidityBarometerVisibility
4:50 PM
Sat, Feb 28
46 °FBroken clouds.21 mph93%29.56 "HgN/A
4:20 PM46 °FPartly sunny.18 mph93%29.59 "Hg6 mi
3:50 PM46 °FDrizzle. Partly sunny.21 mph93%29.62 "Hg4 mi
3:20 PM46 °FPartly sunny.20 mph93%29.62 "HgN/A
2:50 PM48 °FPartly sunny.22 mph87%29.65 "HgN/A
2:20 PM48 °FPartly sunny.21 mph87%29.65 "HgN/A
1:50 PM48 °FPartly sunny.18 mph87%29.68 "HgN/A
1:20 PM48 °FPartly sunny.20 mph87%29.71 "HgN/A
12:50 PM48 °FPartly sunny.23 mph87%29.71 "HgN/A
12:20 PM48 °FPartly sunny.22 mph87%29.74 "HgN/A
11:50 AM46 °FPartly sunny.18 mph87%29.77 "HgN/A
11:20 AM46 °FPartly sunny.17 mph87%29.77 "HgN/A
10:50 AM45 °FPartly sunny.16 mph93%29.80 "HgN/A
10:20 AM45 °FDrizzle. Broken clouds.16 mph93%29.80 "Hg4 mi
9:50 AM43 °FDrizzle. Broken clouds.17 mph93%29.83 "Hg3 mi
9:20 AM43 °FDrizzle. Broken clouds.17 mph93%29.83 "Hg4 mi
8:50 AM43 °FDrizzle. Broken clouds.16 mph87%29.83 "HgN/A
8:20 AM43 °FPartly sunny.17 mph87%29.86 "HgN/A
7:50 AM43 °FPartly sunny.16 mph87%29.86 "HgN/A
7:20 AM43 °FPassing clouds.16 mph87%29.86 "HgN/A
6:50 AM41 °FSunny.16 mph87%29.86 "Hg10 mi
6:20 AM41 °FPassing clouds.16 mph87%29.89 "HgN/A
5:50 AM41 °FPartly cloudy.14 mph87%29.92 "HgN/A
5:20 AM41 °FPassing clouds.14 mph87%29.92 "HgN/A
4:50 AM41 °FPartly cloudy.15 mph87%29.92 "HgN/A
4:20 AM39 °FMostly cloudy.14 mph93%29.92 "HgN/A
3:20 AM37 °FPassing clouds.13 mph93%29.95 "HgN/A
2:50 AM37 °FChilly.12 mph93%29.98 "HgN/A
2:20 AM37 °FChilly.12 mph87%29.98 "HgN/A
1:50 AM37 °FChilly.12 mph87%29.98 "HgN/A
1:20 AM37 °FChilly.9 mph87%30.01 "HgN/A
12:50 AM37 °FChilly.9 mph87%30.01 "HgN/A
12:20 AM37 °FChilly.9 mph81%30.04 "HgN/A
11:50 PM
Fri, Feb 27
37 °FChilly.10 mph81%30.04 "HgN/A
11:20 PM37 °FChilly.9 mph81%30.04 "HgN/A
10:50 PM37 °FChilly.9 mph81%30.04 "HgN/A
10:20 PM37 °FChilly.9 mph81%30.07 "HgN/A
9:50 PM37 °FChilly.8 mph81%30.07 "HgN/A
9:20 PM37 °FClear.7 mph81%30.07 "Hg10 mi
8:50 PM37 °FClear.9 mph81%30.07 "Hg10 mi
8:20 PM37 °FClear.8 mph81%30.07 "Hg10 mi
7:50 PM39 °FClear.7 mph75%30.09 "Hg10 mi
7:20 PM39 °FClear.8 mph75%30.09 "Hg10 mi
6:50 PM41 °FPassing clouds.7 mph70%30.09 "HgN/A
6:20 PM43 °FPassing clouds.7 mph71%30.09 "HgN/A
5:50 PM43 °FPassing clouds.7 mph71%30.09 "HgN/A
5:20 PM43 °FPassing clouds.7 mph71%30.09 "HgN/A
Weather by CustomWeather, © 2015

See weather overviewHow to use our weather pages